DW5435 Weather Reports


Display with metric or nautical units.
time (UTC)temp
F
wind
direction
speed
MPH
gust
MPH
rain 1hr
in
rain 24hr
in
rain mn
in
humidity
%
barometer
mb
20260506050516 0 0.0 0.0 0.00 0.00 0.00
20260506045016 66 0.0 0.0 0.00 0.00 0.00 68 1014.3
20260506044016 66 0.0 0.0 0.00 0.00 0.00 67 1014.3
20260506043016 67 0.0 0.0 0.00 0.00 0.00 66 1014.3
20260506042016 67 0.0 0.0 0.00 0.00 0.00 66 1014.6
20260506041016 67 0.0 0.0 0.00 0.00 0.00 65 1014.5
20260506040016 67 0.0 0.0 0.00 0.00 0.00 64 1014.5
20260506035016 67 0.0 0.0 0.00 0.00 0.00 64 1014.4
20260506034037 0 0.0 0.0 0.00 0.00 0.00
20260506033015 0 0.0 0.0 0.00 0.00 0.00
20260506032515 0 0.0 0.0 0.00 0.00 0.00
20260506031517 0 0.0 0.0 0.00 0.00 0.00
20260506030515 0 0.0 0.0 0.00 0.00 0.00
20260506025515 0 0.0 0.0 0.00 0.00 0.00
20260506025015 0 0.0 0.0 0.00 0.00 0.00
20260506024037 0 0.0 0.0 0.00 0.00 0.00
20260506022517 0 0.0 0.0 0.00 0.00 0.00
20260506021517 0 0.0 0.0 0.00 0.00 0.00
20260506020517 0 0.0 0.0 0.00 0.00 0.00
20260506015017 0 0.0 0.0 0.00 0.00 0.00
20260506014016 0 0.0 0.0 0.00 0.00 0.00
20260506013017 0 0.0 0.0 0.00 0.00 0.00
20260506012516 0 0.0 0.0 0.00 0.00 0.00
20260506011517 0 0.0 0.0 0.00 0.00 0.00
20260506010017 0 0.0 0.0 0.00 0.00 0.00
20260506005016 0 0.0 0.0 0.00 0.00 0.00
20260506004017 0 0.0 0.0 0.00 0.00 0.00
20260506002516 0 0.0 0.0 0.00 0.00 0.00
20260506001517 0 0.0 0.0 0.00 0.00 0.00
20260506000516 0 0.0 0.0 0.00 0.00 0.00
20260506000017 0 0.0 0.0 0.00 0.00 0.00
20260505235016 0 0.0 0.0 0.00 0.00 0.00
20260505233537 0 0.0 0.0 0.00 0.00 0.00
20260505232516 0 0.0 0.0 0.00 0.00 0.00
20260505231517 0 0.0 0.0 0.00 0.00 0.00
20260505230017 0 0.0 0.0 0.00 0.00 0.00
20260505225017 0 0.0 0.0 0.00 0.00 0.00
20260505224037 0 0.0 0.0 0.00 0.00 0.00
20260505223517 0 0.0 0.0 0.00 0.00 0.00
20260505222517 0 0.0 0.0 0.00 0.00 0.00
20260505221016 0 0.0 0.0 0.00 0.00 0.00
20260505220016 0 0.0 0.0 0.00 0.00 0.00
20260505215016 0 0.0 0.0 0.00 0.00 0.00
20260505213016 78 0.0 0.0 0.00 0.00 0.00 50 1013.4
20260505212017 78 0.0 0.0 0.00 0.00 0.00 49 1013.5
20260505211017 78 0.0 0.0 0.00 0.00 0.00 48 1013.6
20260505210017 78 0.0 0.0 0.00 0.00 0.00 49 1013.8
20260505205017 79 0.0 0.0 0.00 0.00 0.00 48 1013.8
20260505204016 79 0.0 0.0 0.00 0.00 0.00 48 1014.0
20260505203037 79 0.0 0.0 0.00 0.00 0.00 47 1014.1
20260505202016 79 0.0 0.0 0.00 0.00 0.00 47 1014.3
20260505201016 79 0.0 0.0 0.00 0.00 0.00 47 1014.4
20260505200036 79 0.0 0.0 0.00 0.00 0.00 47 1014.6
20260505195016 79 0.0 0.0 0.00 0.00 0.00 48 1014.5
20260505194016 80 0.0 0.0 0.00 0.00 0.00 46 1014.6
20260505193017 80 0.0 0.0 0.00 0.00 0.00 46 1014.9
20260505192016 80 0.0 0.0 0.00 0.00 0.00 46 1014.9
20260505191016 80 0.0 0.0 0.00 0.00 0.00 46 1015.1
20260505190016 81 0.0 0.0 0.00 0.00 0.00 45 1015.4
20260505185016 81 0.0 0.0 0.00 0.00 0.00 45 1015.5
20260505184017 81 0.0 0.0 0.00 0.00 0.00 45 1015.7
20260505183017 81 0.0 0.0 0.00 0.00 0.00 42 1015.9
20260505182017 81 0.0 0.0 0.00 0.00 0.00 43 1016.1
20260505181016 82 0.0 0.0 0.00 0.00 0.00 42 1016.1
20260505180017 82 0.0 0.0 0.00 0.00 0.00 41 1016.4
20260505175016 83 0.0 0.0 0.00 0.00 0.00 39 1016.4
20260505174016 83 0.0 0.0 0.00 0.00 0.00 41 1016.5
20260505173016 83 0.0 0.0 0.00 0.00 0.00 40 1016.5
20260505172016 83 0.0 0.0 0.00 0.00 0.00 42 1016.4
20260505171016 83 0.0 0.0 0.00 0.00 0.00 42 1016.5
20260505170016 82 0.0 0.0 0.00 0.00 0.00 44 1016.8
20260505165016 81 0.0 0.0 0.00 0.00 0.00 44 1016.7
20260505164017 81 0.0 0.0 0.00 0.00 0.00 46 1016.9
20260505163017 80 0.0 0.0 0.00 0.00 0.00 48 1017.1
20260505162056 80 0.0 0.0 0.00 0.00 0.00 49 1017.2
20260505161016 79 0.0 0.0 0.00 0.00 0.00 48 1017.1
20260505153016 75 0.0 0.0 0.00 0.00 0.00 56 1017.3
20260505152057 74 0.0 0.0 0.00 0.00 0.00 58 1017.3
20260505151016 73 0.0 0.0 0.00 0.00 0.00 61 1017.1
20260505125016 52 0.0 0.0 0.00 0.00 0.00 82
20260505124016 52 0.0 0.0 0.00 0.00 0.00 82
20260505123016 52 0.0 0.0 0.00 0.00 0.00 82
20260505122037 52 0.0 0.0 0.00 0.00 0.00 82
20260505121016 52 0.0 0.0 0.00 0.00 0.00 82
20260505120016 51 0.0 0.0 0.00 0.00 0.00 82
20260505115016 51 0.0 0.0 0.00 0.00 0.00 82
20260505114016 51 0.0 0.0 0.00 0.00 0.00 81
20260505113037 51 0.0 0.0 0.00 0.00 0.00 80
20260505112016 52 0.0 0.0 0.00 0.00 0.00 80
20260505111016 52 0.0 0.0 0.00 0.00 0.00 80
20260505102017 52 0.0 0.0 0.00 0.00 0.00 79
20260505101017 52 0.0 0.0 0.00 0.00 0.00 79
20260505100016 53 0.0 0.0 0.00 0.00 0.00 79 1015.4
20260505095016 53 0.0 0.0 0.00 0.00 0.00 79 1015.4
20260505094016 53 0.0 0.0 0.00 0.00 0.00 78 1015.3
20260505093036 53 0.0 0.0 0.00 0.00 0.00 78 1015.4
20260505092016 53 0.0 0.0 0.00 0.00 0.00 78 1015.5
20260505091057 53 0.0 0.0 0.00 0.00 0.00 77 1015.7
20260505090016 53 0.0 0.0 0.00 0.00 0.00 77 1015.6
20260505085056 53 0.0 0.0 0.00 0.00 0.00 77 1015.5
20260505084016 54 0.0 0.0 0.00 0.00 0.00 77 1015.6
20260505083016 54 0.0 0.0 0.00 0.00 0.00 77 1015.8
20260505082016 54 0.0 0.0 0.00 0.00 0.00 75 1015.6
20260505081016 54 0.0 0.0 0.00 0.00 0.00 76 1015.4
20260505080016 54 0.0 0.0 0.00 0.00 0.00 76 1015.4
20260505075016 55 0.0 0.0 0.00 0.00 0.00 75 1015.4
20260505074016 55 0.0 0.0 0.00 0.00 0.00 75 1015.3
20260505073016 55 0.0 0.0 0.00 0.00 0.00 74 1015.4
20260505072017 56 0.0 0.0 0.00 0.00 0.00 74 1015.4
20260505071043 56 0.0 0.0 0.00 0.00 0.00 74 1015.4
20260505070036 56 0.0 0.0 0.00 0.00 0.00 73 1015.4
20260505065016 56 0.0 0.0 0.00 0.00 0.00 72 1015.5
20260505064016 57 0.0 0.0 0.00 0.00 0.00 72 1015.5
20260505063016 57 0.0 0.0 0.00 0.00 0.00 73 1015.6
20260505062016 57 0.0 0.0 0.00 0.00 0.00 73 1015.7
20260505061016 57 0.0 0.0 0.00 0.00 0.00 72 1015.7
20260505060016 58 0.0 0.0 0.00 0.00 0.00 72 1015.7